Buffalo, NY

12:28 PM EST on November 22, 2019 (GMT -0500)
Buffalo Niagara International

Weather History for KBUF - September, 2019

Change the Weather History Date:

Friday, September 20, 2019

  Actual Average Record
Temperature  
Mean Temperature 67 °F 61 °F  
Max Temperature 81 °F 70 °F 88 °F (1946)
Min Temperature 53 °F 52 °F 36 °F (1993)
Degree Days  
Heating Degree Days 0 5  
Month to date heating degree days 21 63  
Since 1 July heating degree days 24 90  
Cooling Degree Days 2 1  
Month to date cooling degree days 28 45  
Year to date cooling degree days 573 532  
Growing Degree Days 17 (Base 50)    
Moisture  
Dew Point 52 °F    
Average Humidity 62    
Maximum Humidity 84    
Minimum Humidity 39    
Precipitation  
Precipitation 0.00 in 0.14 in 2.36 in (1875)
Month to date precipitation 4.52 2.47  
Year to date precipitation 32.89 27.63  
Snow  
Snow 0.00 in 0.00 in T in (1956)
Month to date snowfall 0.0 0.0  
Since 1 July snowfall 0.0 0.0  
Since 1 September snowfall 0.0 0.0  
Snow Depth 0.00 in    
Sea Level Pressure  
Sea Level Pressure 30.20 in    
Wind  
Wind Speed 4 mph (SSE)    
Max Wind Speed 9 mph    
Max Gust Speed 11 mph    
Visibility 10 miles    
Events      
T = Trace of Precipitation, MM = Missing Value Source: NWS Daily Summary

Daily Weather History Graph

Daily Weather History Graph

Search for Another Location

Airport or City:

Astronomy

Sep. 20, 2019 Rise Set
Actual Time 6:59 AM EDT 7:16 PM EDT
Civil Twilight 6:31 AM EDT 7:44 PM EDT
Nautical Twilight 5:58 AM EDT 8:17 PM EDT
Astronomical Twilight 5:23 AM EDT 8:51 PM EDT
Moon 10:55 PM EDT (9/20) 1:11 PM EDT (9/20)
Length of Visible Light 13h 13m
Length of Day
12h 16m
Waning Gibbous, 65% of the Moon is Illuminated
Sep 20
Waning Gibbous
Sep 21
Last Quarter
Sep 28
New
Oct 5
First Quarter
Oct 13
Full

Hourly Weather History & Observations

Time (EDT) Temp. Heat Index Dew Point Humidity Pressure Visibility Wind Dir Wind Speed Gust Speed Precip Events Conditions
12:54 AM 59.0 °F - 50.0 °F 72% 30.21 in 10.0 mi SE 5.8 mph - N/A   Partly Cloudy
1:54 AM 57.9 °F - 48.9 °F 72% 30.19 in 10.0 mi SE 6.9 mph - N/A   Partly Cloudy
2:54 AM 57.0 °F - 48.9 °F 74% 30.19 in 10.0 mi SE 3.5 mph - N/A   Clear
3:54 AM 55.9 °F - 48.0 °F 75% 30.19 in 10.0 mi SE 4.6 mph - N/A   Clear
4:54 AM 55.0 °F - 48.0 °F 77% 30.21 in 10.0 mi SSE 5.8 mph - N/A   Clear
5:54 AM 54.0 °F - 46.9 °F 77% 30.21 in 10.0 mi SSE 5.8 mph - N/A   Clear
6:54 AM 54.0 °F - 46.9 °F 77% 30.22 in 10.0 mi SSE 6.9 mph - N/A   Partly Cloudy
7:54 AM 55.0 °F - 48.0 °F 77% 30.23 in 10.0 mi SE 5.8 mph - N/A   Partly Cloudy
8:54 AM 60.1 °F - 48.9 °F 67% 30.24 in 10.0 mi SSE 4.6 mph - N/A   Scattered Clouds
9:54 AM 64.9 °F - 52.0 °F 63% 30.24 in 10.0 mi SSE 5.8 mph - N/A   Scattered Clouds
10:54 AM 71.1 °F - 53.1 °F 53% 30.23 in 10.0 mi South 5.8 mph - N/A   Clear
10:59 AM 70.0 °F - 52.0 °F 53% 30.23 in 10.0 mi SSW 5.8 mph - N/A   Scattered Clouds
11:54 AM 73.9 °F - 53.1 °F 48% 30.21 in 10.0 mi Calm Calm - N/A   Partly Cloudy
12:54 PM 77.0 °F - 54.0 °F 45% 30.20 in 10.0 mi Calm Calm - N/A   Partly Cloudy
1:54 PM 78.1 °F - 54.0 °F 43% 30.19 in 10.0 mi Calm Calm - N/A   Partly Cloudy
2:54 PM 80.1 °F 80.0 °F 54.0 °F 40% 30.17 in 10.0 mi Calm Calm - N/A   Partly Cloudy
3:54 PM 81.0 °F 80.7 °F 55.0 °F 41% 30.16 in 10.0 mi WNW 4.6 mph - N/A   Partly Cloudy
4:54 PM 80.1 °F 80.1 °F 55.0 °F 42% 30.15 in 10.0 mi Calm Calm - N/A   Partly Cloudy
5:54 PM 75.9 °F - 54.0 °F 46% 30.16 in 10.0 mi SW 4.6 mph - N/A   Partly Cloudy
6:54 PM 75.0 °F - 55.0 °F 50% 30.17 in 10.0 mi West 3.5 mph - N/A   Mostly Cloudy
7:54 PM 73.0 °F - 54.0 °F 51% 30.17 in 10.0 mi West 3.5 mph - N/A   Mostly Cloudy
8:54 PM 70.0 °F - 57.0 °F 63% 30.18 in 10.0 mi Calm Calm - N/A   Mostly Cloudy
9:54 PM 68.0 °F - 57.0 °F 68% 30.19 in 10.0 mi ESE 3.5 mph - N/A   Mostly Cloudy
10:54 PM 64.9 °F - 57.9 °F 78% 30.19 in 10.0 mi SSE 4.6 mph - N/A   Partly Cloudy
11:54 PM 63.0 °F - 57.0 °F 81% 30.19 in 10.0 mi SSE 5.8 mph - N/A   Scattered Clouds